DW7816 Weather Reports


Display with metric or nautical units.
time (UTC)temp
F
wind
direction
speed
MPH
gust
MPH
rain 1hr
in
rain 24hr
in
rain mn
in
humidity
%
barometer
mb
20260506221738 62 134 2.0 7.0 0.00 0.06 0.00 58 1016.1
20260506215619 61 288 1.0 13.0 0.00 0.06 0.00 57 1016.2
20260506213451 61 98 4.0 10.0 0.00 0.06 0.00 55 1016.5
20260506212425 62 56 2.0 10.0 0.00 0.06 0.00 59 1016.7
20260506205145 61 222 2.0 7.0 0.00 0.06 0.00 56 1016.9
20260506202954 61 119 3.0 8.0 0.00 0.06 0.00 57 1017.1
20260506202016 61 149 2.0 9.0 0.00 0.06 0.00 60 1017.2
20260506200949 61 102 4.0 13.0 0.00 0.06 0.00 61 1017.4
20260506195945 60 55 5.0 13.0 0.00 0.06 0.00 56 1017.4
20260506194920 60 103 3.0 13.0 0.00 0.06 0.00 64 1017.6
20260506192817 60 28 3.0 10.0 0.00 0.06 0.00 63 1017.9
20260506191807 59 92 3.0 10.0 0.00 0.06 0.00 64 1018.0
20260506190757 59 50 3.0 12.0 0.00 0.06 0.00 63 1018.3
20260506185729 59 24 4.0 13.0 0.00 0.06 0.00 61 1018.3
20260506184736 58 60 4.0 13.0 0.00 0.06 0.00 66 1018.5
20260506183702 58 57 3.0 8.0 0.00 0.06 0.00 66 1018.8
20260506182634 57 34 4.0 8.0 0.00 0.06 0.00 68 1018.9
20260506181617 56 64 3.0 10.0 0.00 0.06 0.00 68 1019.0
20260506180543 57 355 4.0 10.0 0.00 0.06 0.00 69 1018.7
20260506175558 56 59 2.0 8.0 0.00 0.06 0.00 72 1018.7
20260506174614 56 66 3.0 8.0 0.00 0.06 0.00 70 1018.7
20260506173545 56 63 1.0 6.0 0.00 0.06 0.00 71 1018.8
20260506172559 56 190 2.0 7.0 0.00 0.06 0.00 73 1018.7
20260506171609 56 83 2.0 7.0 0.00 0.06 0.00 67 1018.9
20260506170606 56 0 3.0 7.0 0.00 0.06 0.00 70 1018.7
20260506165622 55 83 3.0 7.0 0.00 0.06 0.00 67 1018.5
20260506164625 55 182 2.0 7.0 0.00 0.06 0.00 69 1018.4
20260506162524 53 122 3.0 9.0 0.00 0.06 0.00 74 1018.8
20260506161538 53 126 2.0 9.0 0.00 0.06 0.00 70 1018.9
20260506160551 54 244 1.0 1.0 0.00 0.06 0.00 76 1018.4
20260506155525 53 101 3.0 9.0 0.00 0.06 0.00 76 1018.4
20260506151122 51 46 1.0 7.0 0.00 0.06 0.00 77 1018.5
20260506150141 51 71 1.0 9.0 0.00 0.06 0.00 78 1018.5
20260506145159 51 148 2.0 9.0 0.00 0.06 0.00 79 1018.3
20260506144134 50 0 2.0 7.0 0.00 0.06 0.00 79 1018.2
20260506143135 50 116 1.0 9.0 0.00 0.06 0.00 82 1017.9
20260506142123 50 103 3.0 12.0 0.00 0.06 0.00 80 1018.1
20260506141136 50 48 3.0 12.0 0.00 0.06 0.00 83 1018.2
20260506140121 49 39 2.0 10.0 0.00 0.06 0.00 85 1017.7
20260506135140 48 86 2.0 10.0 0.00 0.06 0.00 85 1017.9
20260506134111 47 113 2.0 9.0 0.00 0.06 0.00 90 1017.6
20260506131958 46 98 3.0 11.0 0.00 0.06 0.00 90 1017.8
20260506130936 46 158 2.0 10.0 0.00 0.06 0.00 91 1017.8
20260506125928 46 34 3.0 10.0 0.00 0.06 0.00 92 1017.8
20260506124900 45 74 2.0 8.0 0.00 0.06 0.00 92 1017.8
20260506123849 45 45 0.0 6.0 0.00 0.06 0.00 92 1017.6
20260506122824 45 63 1.0 6.0 0.00 0.06 0.00 92 1017.7
20260506121823 45 305 1.0 6.0 0.00 0.06 0.00 93 1017.6
20260506115633 45 54 3.0 7.0 0.00 0.06 0.00 94 1017.7
20260506114612 45 51 3.0 7.0 0.00 0.06 0.00 94 1017.4
20260506113552 45 33 2.0 7.0 0.00 0.06 0.00 94 1016.7
20260506112524 45 73 2.0 7.0 0.00 0.06 0.00 93 1016.6
20260506111459 45 69 2.0 6.0 0.00 0.06 0.00 93 1016.2
20260506110425 45 57 2.0 8.0 0.00 0.06 0.00 93 1016.2
20260506104246 45 69 2.0 7.0 0.00 0.06 0.00 92 1015.5
20260506102136 45 51 4.0 7.0 0.00 0.06 0.00 92 1015.7
20260506101119 45 30 3.0 9.0 0.00 0.06 0.00 92 1015.3
20260506100046 45 103 3.0 9.0 0.00 0.06 0.00 92 1015.3
20260506095029 45 40 0.0 3.0 0.00 0.06 0.00 93 1014.7
20260506094044 45 124 0.0 3.0 0.00 0.06 0.00 93 1014.4
20260506093037 45 148 0.0 0.0 0.00 0.07 0.00 93 1015.2
20260506092026 45 148 0.0 0.0 0.00 0.07 0.00 93 1015.1
20260506091024 45 39 0.0 0.0 0.00 0.08 0.00 92 1014.7
20260506083804 44 129 1.0 9.0 0.00 0.15 0.00 92 1013.1
20260506082734 44 113 3.0 9.0 0.00 0.16 0.00 92 1012.6
20260506081751 44 147 2.0 8.0 0.00 0.16 0.00 93 1012.9
20260506080806 44 69 2.0 8.0 0.00 0.16 0.00 93 1012.8
20260506072554 44 57 0.0 4.0 0.00 0.16 0.00 94 1013.7
20260506070458 44 111 1.0 4.0 0.00 0.16 0.00 94 1013.9
20260506061416 44 54 2.0 7.0 0.00 0.16 0.00 93 1014.3
20260506060419 44 52 1.0 4.0 0.00 0.16 0.00 93 1014.1
20260506051220 44 159 1.0 0.0 0.00 0.16 0.00 92 1013.4
20260506050226 44 117 1.0 3.0 0.00 0.16 0.00 92 1013.2
20260506044230 44 133 2.0 9.0 0.00 0.16 0.17 93 1012.6
20260506043218 45 116 1.0 9.0 0.00 0.16 0.17 95 1013.1
20260506042147 45 84 2.0 8.0 0.00 0.16 0.17 95 1012.5
20260506041116 45 45 2.0 8.0 0.00 0.16 0.17 95 1012.3
20260506040123 45 87 0.0 5.0 0.00 0.16 0.17 96 1012.4
20260506035125 45 42 0.0 6.0 0.00 0.16 0.17 95 1012.5
20260506034144 45 69 1.0 6.0 0.00 0.16 0.17 96 1012.6
20260506033200 45 14 2.0 7.0 0.00 0.16 0.17 95 1012.8
20260506032216 45 12 2.0 9.0 0.00 0.16 0.17 95 1013.1
20260506031235 45 0 2.0 9.0 0.00 0.16 0.17 95 1012.1
20260506025102 45 134 1.0 7.0 0.05 0.16 0.16 95 1011.3
20260506024126 45 331 1.0 9.0 0.27 0.14 0.16 95 1011.6
20260506023149 45 60 1.0 8.0 0.00 0.12 0.12 95 1011.4
20260506022129 45 108 2.0 9.0 0.00 0.12 0.12 95 1011.2
20260506021144 45 317 1.0 8.0 0.00 0.12 0.12 95 1011.1
20260506020149 45 149 1.0 8.0 0.00 0.12 0.12 95 1010.9
20260506014049 45 138 0.0 7.0 0.00 0.12 0.12 95 1010.6
20260506013029 45 24 1.0 7.0 0.00 0.12 0.12 95 1010.6
20260506010919 45 140 1.0 7.0 0.00 0.12 0.12 95 1010.2
20260506005920 46 73 1.0 7.0 0.00 0.12 0.12 95 1010.1
20260506004912 45 150 1.0 7.0 0.00 0.12 0.12 95 1010.1
20260506002736 46 92 2.0 10.0 0.00 0.10 0.10 95 1009.5
20260506001707 46 105 2.0 8.0 0.00 0.10 0.10 95 1009.6
20260506000645 46 221 1.0 9.0 0.00 0.10 0.10 95 1009.0
20260505235633 46 65 2.0 10.0 0.00 0.10 0.10 95 1009.0
20260505234621 46 122 2.0 10.0 0.00 0.10 0.10 95 1009.5
20260505232517 46 85 3.0 12.0 0.00 0.10 0.10 94 1008.9
20260505231538 47 59 2.0 12.0 0.00 0.10 0.10 94 1008.5
20260505230514 47 109 2.0 10.0 0.00 0.09 0.10 94 1008.9
20260505225505 47 143 2.0 10.0 0.00 0.09 0.10 93 1008.7
20260505224503 48 185 2.0 10.0 0.00 0.09 0.10 92 1009.1
20260505223506 48 63 2.0 10.0 0.00 0.09 0.10 91 1008.9
20260505222510 48 235 2.0 14.0 0.00 0.09 0.10 91 1008.5